SCP
0 0 1 1 1 1 0 0 0 0 0 0 0 0 0 0 0 0 0 0 0 0 0 0 0 0 0 0 0 0 0 0 0 0 0 0 0 0 0 0 0 0 0
0 1 1 1 1 1 0 0 0 0 0 0 0 0 0 0 0 0 0 0 0 0 0 0 0 0 0 0 0 0 0 0 0 0 0 0 0 0 0 0 0 0 0
1 1 1 1 1 1 1 0 0 0 0 0 0 0 0 0 0 0 0 0 0 0 0 0 0 0 0 0 0 0 0 0 0 0 0 0 0 0 0 0 0 0 0
1 1 1 1 1 1 1 1 0 0 0 0 0 0 0 0 0 0 0 0 0 0 0 0 0 0 0 0 0 0 0 0 0 0 0 0 0 0 0 0 0 0 0
1 1 1 1 1 1 1 1 1 0 0 0 0 0 0 0 0 0 0 0 0 0 0 0 0 0 0 0 0 0 0 0 0 0 0 0 0 0 0 0 0 0 0
1 1 1 1 1 1 1 1 1 1 0 0 0 0 0 0 0 0 0 0 0 0 0 0 0 0 0 0 0 0 0 0 0 -0 0 0 0 0 0 0 0 0 0
1 1 1 1 1 1 1 1 1 1 1 0 0 0 0 0 0 0 0 0 0 0 0 0 0 0 0 0 0 0 0 0 0 0 0 0 0 0 0 0 0 0 0
1 1 1 1 1 1 1 1 1 1 1 0 0 0 0 0 0 0 0 0 0 0 0 0 0 0 0 0 0 0 0 0 0 0 0 0 0 0 0 0 0 0 0
1 1 1 1 1 1 1 1 1 1 1 1 0 0 0 0 0 0 0 0 0 0 0 0 0 0 0 0 0 0 0 0 0 0 0 0 0 0 0 0 0 0 0
0 0 0 1 1 1 1 1 1 1 1 1 1 0 0 0 0 0 0 0 0 0 0 0 0 0 0 0 0 0 0 0 0 0 0 0 0 0 0 0 0 0 0
0 0 0 0 0 0 0 0 0 1 1 1 0 0 0 0 0 0 0 1 1 1 0 0 0 0 0 0 0 0 0 0 0 0 0 0 0 0 1 1 1 0 0
1 0 0 0 0 0 0 0 0 0 0 1 1 1 1 1 1 1 1 1 1 1 1 1 1 1 1 0 0 0 0 0 0 0 0 0 0 1 1 1 1 1 1
1 1 0 0 0 0 0 0 1 0 1 1 1 1 1 1 1 1 1 1 1 1 1 1 1 1 1 1 1 0 0 0 0 0 0 0 0 1 1 1 1 1 1
1 1 1 0 0 0 1 1 1 1 1 1 1 1 1 1 1 1 1 1 1 1 1 1 1 1 1 1 1 1 0 0 0 0 0 0 0 1 1 1 1 1 1
1 1 1 1 1 1 1 1 1 1 1 1 1 1 1 1 1 1 1 1 1 1 1 1 1 1 1 1 1 1 0 0 0 0 0 0 0 1 1 1 1 1 1
1 1 1 1 1 1 1 1 1 1 1 1 1 1 1 1 1 1 1 1 1 1 1 1 1 1 1 1 1 1 0 0 0 0 0 0 1 1 1 1 1 1 1
1 1 1 1 1 1 1 1 1 1 1 1 1 1 1 1 1 1 1 1 1 1 1 1 1 1 1 1 1 1 0 0 0 0 0 0 1 1 1 1 1 1 1
1 1 1 1 1 1 1 1 1 1 1 1 1 1 1 1 0 0 0 0 0 0 0 0 0 0 0 0 0 0 0 0 0 0 0 0 0 1 1 1 1 1 1
1 1 1 1 1 1 1 1 1 1 1 1 1 0 0 0 0 0 0 0 0 0 0 0 0 0 0 0 0 0 0 0 0 0 0 0 0 0 0 0 0 0 0
1 1 1 1 1 1 1 1 1 1 0 0 0 0 0 0 0 0 0 0 0 0 0 0 0 0 0 0 0 0 0 0 0 0 0 0 0 0 0 0 0 0 0
0 0 1 1 0 0 0 0 0 0 0 0 0 0 0 0 0 0 0 0 0 0 0 0 0 0 0 0 0 0 0 0 0 0 0 0 0 0 0 0 0 0 0
0 0 0 0 0 0 0 0 0 0 0 0 0 0 0 0 0 0 0 0 0 0 0 0 0 0 0 0 0 0 0 0 0 0 0 0 0 0 0 0 0 0 0
0 0 0 0 0 0 0 0 0 0 0 0 0 0 0 0 0 0 0 0 0 0 0 0 0 0 0 0 0 0 0 0 0 0 0 0 0 0 0 0 0 0 0
0 0 0 0 0 0 0 0 0 0 0 0 0 0 0 0 0 0 0 0 0 0 0 0 0 0 0 0 0 0 0 0 0 0 0 0 0 0 0 0 0 0 0
0 0 0 0 0 0 0 0 0 0 0 0 0 0 0 0 0 0 0 0 0 0 0 0 0 0 0 0 0 0 0 0 0 0 0 0 0 0 0 0 0 0 0
0 0 0 0 0 0 0 0 0 0 0 0 0 0 0 0 0 0 0 0 0 0 0 0 0 0 0 0 0 0 0 0 0 0 0 0 0 0 0 0 0 0 0
Wind_Speed
10 11 18 19 19 19 18 18 17 17 17 17 17 16 17 17 17 16 16 15 15 14 13 12 12 12 12 13 13 14 15 15 15 15 15 14 13 12 13 15 14 11 16
15 14 19 19 19 19 18 18 17 17 16 16 16 16 15 15 15 15 14 14 14 13 12 12 12 12 12 12 12 13 14 14 14 15 15 13 12 11 12 14 14 10 15
17 13 16 19 19 19 18 18 17 17 16 16 15 15 15 14 14 14 13 13 13 12 12 12 12 12 11 11 11 11 12 12 13 14 13 6 8 12 14 15 15 15 15
17 12 14 19 19 19 18 17 17 17 16 16 15 15 14 14 13 13 12 12 12 12 11 11 11 11 11 10 10 9 10 10 11 12 6 4 6 13 15 15 15 15 15
13 10 14 20 19 19 18 17 16 16 16 15 15 14 14 13 13 12 12 12 11 11 11 11 11 11 10 9 9 8 7 7 8 7 4 4 5 13 15 14 14 14 14
11 9 14 20 19 18 17 17 16 16 15 15 15 14 14 13 12 12 12 11 11 11 11 11 10 10 9 9 8 7 6 6 5 2 4 5 5 12 15 15 14 14 14
11 8 12 19 18 18 17 16 15 15 15 14 14 13 13 13 12 12 12 11 11 10 10 11 10 10 9 8 8 7 6 6 3 2 4 6 7 13 15 15 14 14 14
14 9 10 18 18 17 16 16 15 14 14 14 13 13 13 12 12 12 12 11 11 11 11 11 10 10 10 9 8 7 6 6 4 3 4 6 11 15 16 16 14 14 14
13 10 7 9 12 16 16 15 15 14 13 13 13 12 12 12 12 12 11 11 12 12 12 12 12 11 11 10 10 9 8 8 2 2 4 5 13 17 17 17 16 15 15
10 9 7 7 7 7 9 14 15 14 14 13 13 13 12 12 12 12 10 11 13 13 13 14 14 13 13 12 11 11 10 8 3 3 2 6 14 18 19 18 18 17 16
9 7 7 7 7 6 6 11 12 13 13 13 11 13 11 5 6 7 10 13 14 15 15 15 15 15 14 13 14 13 10 4 3 3 3 9 15 18 20 19 19 18 17
9 8 7 8 8 7 7 6 4 5 5 6 4 6 5 4 5 7 9 15 16 17 17 17 16 15 12 6 9 12 5 5 4 4 5 12 15 19 20 20 20 19 19
8 8 7 7 7 7 5 5 3 3 3 4 5 5 4 4 4 5 3 7 10 13 9 10 11 7 6 5 5 5 6 6 4 4 6 12 16 20 21 21 20 20 20
7 6 7 7 6 6 4 4 4 3 3 3 4 6 5 3 4 3 3 4 5 5 6 6 5 7 7 8 8 8 8 6 5 4 6 12 14 19 20 21 21 21 20
5 5 5 5 5 4 4 3 4 3 3 3 3 4 4 4 3 3 2 3 4 4 4 5 6 7 8 8 8 9 9 9 8 6 5 12 15 18 21 22 22 22 21
4 3 3 4 3 4 3 2 2 2 3 2 2 3 3 3 2 2 2 2 3 3 4 5 7 7 7 7 8 9 9 8 7 7 6 8 14 16 19 21 21 22 21
3 3 4 4 4 4 4 3 2 2 2 2 2 2 2 2 2 2 2 2 2 3 3 3 5 5 5 6 8 9 7 8 8 8 7 5 7 14 18 20 20 21 21
5 5 5 5 4 4 3 3 2 2 2 2 2 1 1 1 2 1 1 2 2 2 2 3 3 4 4 5 5 6 6 6 9 9 8 7 6 7 13 20 20 20 21
4 5 5 5 4 4 3 3 2 2 2 1 1 1 1 1 1 1 1 2 2 2 2 3 2 3 4 4 5 5 6 6 7 8 8 9 8 8 7 13 19 20 22
4 5 5 5 4 3 3 3 3 3 2 1 0 1 1 1 1 1 1 2 2 2 2 2 3 3 3 3 6 6 5 6 6 6 8 7 8 10 10 10 10 14 21
4 4 4 4 3 2 2 1 2 1 1 1 1 1 1 1 1 1 1 1 1 2 3 3 3 3 3 2 3 4 4 6 7 6 6 6 8 9 9 10 8 8 9
4 4 4 3 2 2 1 1 1 1 1 0 1 2 1 2 2 2 2 2 2 2 2 3 2 2 2 2 2 2 3 3 4 7 5 6 8 7 9 11 9 9 8
5 5 4 4 3 2 1 1 2 2 2 2 2 2 3 3 3 2 2 2 2 2 2 3 2 2 2 2 2 3 2 3 2 2 6 6 6 6 7 7 10 10 10
6 5 5 4 3 2 2 2 1 1 1 2 2 2 4 3 3 3 3 3 3 2 2 3 2 2 2 2 2 3 3 2 2 2 2 4 6 7 7 8 8 8 9
5 4 4 3 3 2 2 2 2 1 2 2 2 3 4 4 4 3 3 3 3 3 3 3 2 2 2 2 2 2 2 2 3 2 2 2 2 3 5 6 6 6 8
3 3 3 3 2 2 2 2 2 3 3 3 4 4 3 3 3 3 3 3 3 3 3 3 2 2 2 2 2 2 2 2 2 2 3 2 2 2 3 4 5 6 6
Wind_Direction
153 159 152 145 142 139 136 132 129 125 122 120 118 117 116 116 117 119 122 124 125 125 124 123 120 116 114 114 116 117 119 120 121 120 117 115 116 118 117 114 112 111 115
150 156 151 147 144 142 139 137 134 132 129 127 126 124 123 123 123 124 126 127 128 128 127 126 125 122 121 120 121 122 124 126 126 123 118 113 115 123 124 118 116 121 120
144 150 149 147 145 144 142 141 140 138 136 135 133 132 132 131 131 131 131 132 132 131 131 131 130 128 127 126 126 127 129 130 130 126 118 111 110 119 125 124 123 123 122
142 145 148 147 146 145 144 144 143 142 142 142 141 141 141 140 140 139 138 138 140 139 139 139 138 136 136 135 133 133 134 136 137 134 127 131 123 124 127 128 128 128 127
137 139 150 148 147 147 146 146 146 146 147 147 148 149 149 148 149 149 148 147 147 148 149 149 147 146 146 146 145 144 144 146 150 147 150 145 131 136 135 136 135 134 134
133 137 150 148 148 149 149 150 151 152 152 154 155 156 156 157 159 159 158 157 158 159 158 158 158 157 158 161 162 162 164 168 166 153 150 152 151 150 146 145 143 142 141
134 139 149 148 150 151 152 155 156 156 158 159 161 162 163 164 166 167 168 169 171 171 170 169 171 171 174 178 182 185 189 194 178 159 162 166 170 161 155 153 151 150 148
139 140 147 151 152 153 156 158 159 161 162 164 166 168 170 172 176 178 178 181 182 183 182 182 184 185 188 192 199 205 210 217 193 170 176 181 179 170 164 161 159 158 156
139 141 143 151 154 157 159 162 164 165 167 170 172 175 178 182 185 188 189 192 193 193 194 194 195 197 200 202 209 217 224 230 209 178 195 188 186 177 172 168 167 167 166
137 144 144 147 150 156 163 169 171 173 175 178 181 184 188 192 195 200 200 203 204 204 204 204 204 205 207 210 215 222 230 237 226 213 202 198 197 186 180 176 174 174 174
141 152 155 157 158 159 165 178 177 180 183 186 190 194 195 199 202 208 213 214 216 215 214 214 213 212 213 216 219 224 231 223 215 216 209 213 204 195 187 183 181 180 180
153 168 171 171 170 168 179 173 175 185 186 188 188 198 194 192 206 215 225 226 225 224 222 222 222 219 217 216 224 225 222 217 221 224 219 218 207 202 195 188 187 185 185
159 173 177 177 175 178 181 163 177 187 187 194 196 201 201 201 210 220 220 237 233 229 224 225 227 221 217 211 214 218 219 218 221 228 228 220 209 206 201 194 192 190 189
145 183 176 173 175 185 173 166 174 186 192 199 207 206 203 209 215 220 214 225 223 220 213 215 217 217 220 219 218 222 224 222 219 217 227 230 218 209 203 199 197 195 193
140 168 163 160 163 162 147 158 157 171 174 182 197 207 203 207 215 216 231 234 225 217 210 216 221 221 222 223 224 225 227 225 223 219 224 230 221 212 208 205 202 200 198
103 113 131 123 125 118 119 131 143 147 148 156 172 180 182 192 203 211 227 240 238 221 221 222 225 223 226 225 226 226 225 223 223 223 219 228 219 209 209 208 206 206 204
91 102 121 111 97 96 104 111 113 121 127 134 155 162 166 176 179 189 218 238 247 239 231 229 227 225 228 227 228 229 227 224 221 222 218 213 214 214 215 215 211 209 208
91 82 75 88 78 81 85 90 94 105 112 128 143 149 157 174 188 190 222 247 259 254 238 230 223 227 234 231 227 232 230 225 225 219 215 211 207 214 220 219 218 216 212
94 90 83 77 70 62 61 61 59 67 82 120 134 149 162 189 190 198 226 256 264 257 247 244 226 226 237 243 240 236 229 226 226 225 217 212 208 208 211 217 220 222 218
99 92 87 79 67 56 46 35 33 33 24 35 130 181 181 216 225 222 247 276 276 269 265 252 247 242 238 245 257 254 236 228 222 217 219 215 211 210 209 211 215 223 221
101 96 90 87 79 73 59 37 32 1 336 347 319 274 246 257 241 218 246 270 268 259 258 254 246 252 253 244 254 270 262 235 226 220 216 212 214 213 209 207 207 209 218
135 132 128 128 125 114 119 137 168 222 278 275 339 323 294 274 255 233 224 242 253 262 279 268 242 245 258 231 213 236 272 278 246 229 216 217 218 214 213 210 206 207 210
165 167 161 165 154 147 129 77 33 24 8 1 341 308 299 284 268 250 231 232 246 236 253 268 256 228 254 259 217 206 219 236 273 252 223 220 212 209 215 209 207 208 208
191 179 173 174 172 170 139 118 126 138 262 263 265 277 292 288 276 257 236 229 234 230 232 247 228 237 234 256 255 233 233 211 208 272 269 228 212 209 209 210 207 204 204
186 174 176 174 181 191 180 170 167 215 237 263 282 299 299 293 285 274 256 240 231 229 233 241 245 238 226 237 246 254 256 252 221 210 252 260 239 219 205 205 199 199 200
149 146 153 159 201 224 217 212 209 233 252 277 291 293 291 289 288 280 262 248 241 234 235 236 235 240 240 252 254 242 247 249 230 209 227 238 234 239 214 206 197 198 196